[Iaude] MPEC C38: 2024 CF [a=2.50,e=0.48,i=9.7,H=21.0]

mpec at marsden.cfa.harvard.edu mpec at marsden.cfa.harvard.edu
Sat Feb 3 12:29:22 EST 2024


M.P.E.C. 2024-C38                              Issued 2024 February 3, 17:27 UT

     The Minor Planet Electronic Circulars contain information on unusual
         minor planets, routine data on comets and natural satellites,
         and occasional editorial announcements.  They are published
    on behalf of Division F of the International Astronomical Union by the
          Minor Planet Center, Smithsonian Astrophysical Observatory,
                          Cambridge, MA 02138, U.S.A.
			  
             Prepared using the Tamkin Foundation Computer Network

                              MPC at CFA.HARVARD.EDU
            URL https://www.minorplanetcenter.net/    ISSN 1523-6714

                                    2024 CF                                     


Observations:
     K24C00F*KC2024 02 01.01802 05 19 34.246+36 23 15.76         21.0 GVEC038W16
     K24C00F KC2024 02 01.02544 05 19 35.328+36 23 04.31         21.1 GVEC038W16
     K24C00F KC2024 02 01.03289 05 19 36.485+36 22 53.51         21.0 GVEC038W16
     K24C00F KC2024 02 01.04035 05 19 37.606+36 22 42.42               VEC038W16
     K24C00F KC2024 02 01.15679 05 19 54.775+36 19 44.04         19.7 GVEC038W16
     K24C00F KC2024 02 01.16818 05 19 56.410+36 19 25.79         20.0 GVEC038W16
     K24C00F KC2024 02 01.17955 05 19 58.116+36 19 08.51         20.4 GVEC038W16
     K24C00F KC2024 02 01.19090 05 19 59.813+36 18 50.69         20.6 GVEC038W16
     K24C00F KB2024 02 01.88963005 21 50.461+36 01 00.46         22.3 VZEC038Y89
     K24C00F KB2024 02 01.90465305 21 52.744+36 00 36.38         20.5 VZEC038Y89
     K24C00F KB2024 02 01.91947905 21 54.969+36 00 15.41         21.0 VZEC038Y89
     K24C00F 1C2024 02 02.77275 05 24 11.27 +35 38 22.0          20.4 VXEC038033
     K24C00F 1C2024 02 02.77390 05 24 11.44 +35 38 20.3          20.4 VXEC038033
     K24C00F KC2024 02 02.77843205 24 12.190+35 38 15.58         22.3 GVEC038598
     K24C00F KC2024 02 02.78519005 24 13.229+35 38 05.86         22.3 GVEC038598
     K24C00F KC2024 02 02.79195005 24 14.242+35 37 55.06         21.3 GVEC038598
     K24C00F KB2024 02 02.79384 05 24 14.43 +35 37 52.2          20.5 RZEC038106
     K24C00F KB2024 02 02.80433 05 24 16.05 +35 37 35.8          20.9 RZEC038106
     K24C00F KB2024 02 02.81512 05 24 17.79 +35 37 18.6          20.5 RZEC038106
     K24C00F KB2024 02 02.82582 05 24 19.28 +35 37 03.1          20.1 RZEC038106
     K24C00F KC2024 02 03.01877405 24 50.88 +35 32 07.4          21.3 GVEC038H21
     K24C00F KC2024 02 03.02436805 24 51.77 +35 31 59.1          21.8 GVEC038H21
     K24C00F KC2024 02 03.02995905 24 52.61 +35 31 50.9          21.1 GVEC038H21
     K24C00F KC2024 02 03.05287 05 24 56.083+35 31 17.47         21.0 GVEC038W16
     K24C00F KC2024 02 03.06771 05 24 58.349+35 30 55.40         21.0 GVEC038W16

Observer details:
033 Karl Schwarzschild Observatory, Tautenburg.  Observers S. Melnikov, C.
    Hogner, F. Ludwig, M. Hartmann, B. Stecklum.  Measurer B. Stecklum.
    1.34-m f/3 Schmidt + CCD.
106 Crni Vrh.  Observer J. Vales.  0.60-m f/3.3 reflector + CMO.
598 Loiano.  Observer A. Carbognani.  1.52-m f/4.75 Reflector + CCD.
H21 Astronomical Research Observatory, Westfield.  Observer R. Holmes.
    Measurers T. Linder, R. Holmes, L. Horn.  0.76-m f/3.0 astrograph + CCD.
W16 Pleasant Groves Observatory.  Observer M. Holbrook.  0.36-m f/2.2
    reflector + CCD.
Y89 Proxima Centauri Observatory, Valdin.  Observer R. Hahn.  0.36-m f/2.0
    reflector + CMO.

Orbital elements:
2024 CF                                                  Earth MOID = 0.3162 AU
Epoch 2023 Sept. 13.0 TT = JDT 2460200.5                Bell                    
M 325.30176              (2000.0)            P               Q                  
n   0.24960077     Peri.  152.25311     -0.43206953     -0.89610589             
a   2.4982665      Node   323.09039     +0.79295308     -0.32385476             
e   0.4830992      Incl.    9.73406     +0.42958274     -0.30350013             
P   3.95           H   21.01          G   0.15           U   9                  
Residuals in seconds of arc
240201 W16  0.3+  0.2+    240201 Y89  0.3-  0.7-    240202 106  1.0+  0.7-
240201 W16  0.0   0.2-    240201 Y89  0.3-  1.2+    240202 106  0.7-  0.3+
240201 W16  0.7+  0.2+    240202 033  0.1+  0.2-    240203 H21  0.3-  0.1-
240201 W16  0.9+  0.3+    240202 033  0.0   0.1-    240203 H21  0.2+  0.0
240201 W16  0.3+  0.0     240202 598  0.1+  0.2-    240203 H21  0.0   0.2+
240201 W16  0.4-  0.6-    240202 598  0.2+  0.3+    240203 W16  0.1-  0.3-
240201 W16  0.2-  0.1-    240202 598  0.0   0.2-    240203 W16  0.1+  0.2+
240201 W16  0.1-  0.2-    240202 106  0.5-  0.4+
240201 Y89  0.6-  0.2+    240202 106  0.2-  0.0

Ephemeris:
2024 CF                  a,e,i = 2.50, 0.48, 10                  q = 1.2914
Date    TT    R. A. (2000) Decl.     Delta      r    Elong.  Phase     V
2024 01 04    04 26 32.1 +46 53 27   0.3991  1.3199   141.7    27.5    20.8
...
2024 01 19    04 49 04.8 +41 43 05   0.4001  1.2966   134.6    32.7    21.0
...
2024 01 27    05 06 55.1 +38 29 49   0.4100  1.2918   131.1    35.0    21.1
...
2024 02 02    05 22 07.9 +35 58 15   0.4218  1.2917   128.7    36.5    21.2
2024 02 03    05 24 47.1 +35 32 40   0.4242  1.2920   128.3    36.8    21.2
2024 02 04    05 27 28.0 +35 07 03   0.4266  1.2924   127.9    37.0    21.2
...
2024 02 10    05 44 03.9 +32 32 55   0.4437  1.2965   125.7    38.2    21.3
...
2024 02 18    06 07 08.0 +29 09 46   0.4727  1.3066   122.9    39.4    21.5
...
2024 03 04    06 51 02.1 +23 10 45   0.5467  1.3393   118.1    40.8    21.9

M. P. C. Staff               (C) Copyright 2024 MPC           M.P.E.C. 2024-C38





More information about the Iaude mailing list